This demonstration page uses our WeatherBlox Daily Observations layout. Learn more.

Left ArrowRight Arrow

Hourly Observations for August 25, 2020

Temp ( °F °C ) Dew Point ( °F °C ) Humidity (%) Winds ( mph kmh ) Pressure ( in mb ) Visibility ( mi km ) Precip ( " mm )
12:54 am 00:54 Clear 73 22.8 63 17.2 71 71 S 10 17 29.96 1015 10 16.0934 0 0
1:54 am 01:54 Clear 71 21.7 63 17.2 76 76 S 8 13 29.96 1015 10 16.0934 0 0
2:54 am 02:54 Clear 67 19.4 62 16.7 84 84 S 7 11 29.96 1015 9 14.48406 0 0
3:54 am 03:54 Clear 67 19.4 61 16.1 81 81 S 6 9 29.96 1015 9 14.48406 0 0
4:54 am 04:54 Clear 68 20 62 16.7 81 81 S 5 7 29.97 1015 9 14.48406 0 0
5:54 am 05:54 Clear 67 19.4 61 16.1 81 81 SSE 5 7 29.97 1015 9 14.48406 0 0
6:54 am 06:54 Sunny 67 19.4 61 16.1 81 81 SSE 3 6 29.98 1015 9 14.48406 0 0
7:54 am 07:54 Sunny 69 20.6 63 17.2 81 81 S 7 11 29.98 1015 8 12.87472 0 0
8:54 am 08:54 Sunny 75 23.9 64 17.8 69 69 S 13 20 29.98 1015 8 12.87472 0 0
9:54 am 09:54 Sunny 81 27.2 63 17.2 54 54 SSW 12 19 29.97 1015 8 12.87472 0 0
10:54 am 10:54 Sunny 85 29.4 64 17.8 50 50 SSW 15 24 29.98 1015 9 14.48406 0 0
11:54 am 11:54 Sunny 87 30.6 64 17.8 46 46 S 14 22 29.97 1015 9 14.48406 0 0
12:54 pm 12:54 Sunny 91 32.8 64 17.8 41 41 SSW 17 28 29.95 1014 9 14.48406 0 0
1:54 pm 13:54 Sunny 93 33.9 64 17.8 38 38 SSW 17 28 29.94 1014 9 14.48406 0 0
2:54 pm 14:54 Sunny 94 34.4 63 17.2 36 36 SW 15 24 29.93 1013 9 14.48406 0 0
3:54 pm 15:54 Sunny 94 34.4 64 17.8 37 37 S 15 24 29.91 1013 9 14.48406 0 0
4:54 pm 16:54 Sunny 93 33.9 64 17.8 38 38 SSW 15 24 29.89 1012 9 14.48406 0 0
5:54 pm 17:54 Sunny 92 33.3 65 18.3 41 41 S 15 24 29.89 1012 9 14.48406 0 0
6:54 pm 18:54 Sunny 89 31.7 65 18.3 45 45 S 9 15 29.89 1012 9 14.48406 0 0
7:54 pm 19:54 Sunny 84 28.9 66 18.9 55 55 SSE 10 17 29.89 1012 8 12.87472 0 0
8:54 pm 20:54 Clear 78 25.6 66 18.9 67 67 S 9 15 29.9 1013 10 16.0934 0 0
9:54 pm 21:54 Clear 77 25 65 18.3 66 66 S 9 15 29.91 1013 10 16.0934 0 0
10:54 pm 22:54 Clear 73 22.8 63 17.2 71 71 S 9 15 29.91 1013 10 16.0934 0 0
11:54 pm 23:54 Clear 71 21.7 62 16.7 73 73 S 8 13 29.91 1013 10 16.0934 0 0

Powered by AerisWeather